C/2017 K6 ( Jacques )

Japanese version
Home page
Updated on September 22, 2018

---------------------------------------------------------------------

* Profile

Discovery Date May 29, 2017
Magnitude 17.5 mag
Discoverer Cristovao Jacques (SONEAR Observatory at Oliveira)

* Pictures

* Orbital Elements

Epoch 2018 Jan. 2.0 TT = JDT 2458120.5
T 2018 Jan. 3.13777 TT                                  MPCW
q   2.0027582            (2000.0)            P               Q
z  +0.0008906      Peri.  303.83890     +0.49565855     -0.22851035
 +/-0.0000014      Node    85.05439     +0.75134617     +0.59675892
e   0.9982163      Incl.   57.25102     -0.43566218     +0.76919556
From 349 observations 2017 May 29-2018 Mar. 24, mean residual 0".6.

* Finding Charts

* Magnitudes Graph

        m1 = 8.5 + 5 log d + 12.5 log r(t - 30)

---------------------------------------------------------------------

The orbital elements are published on M.P.E.C. 2018-F152.
The charts are made with StellaNavigator Ver.10 (AstroArts).
The magnitudes graphs are made with Comet for Windows.

---------------------------------------------------------------------

Copyright(C) Seiichi Yoshida (comet@aerith.net). All rights reserved.